[[{"header":{"parameterUnit":"m.s-1","parameterCategory":1,"la1":30.2991,"la2":30.254,"lo1":-89.0895,"lo2":-89.0444,"dy":0.0017,"dx":0.0017,"nx":28,"ny":28,"refTime":"2023-08-01T03:00:00:Z","depth":0,"parameterNumber":2,"parameterNumberName":"U-component_of_WINDS"},"data":[0,0,0,0,0,0,0,0,0,0,0,0,0,0,0,0,0,0,0,0,0,0,0,0,0,0,0,0,0,0,0,0,0,0,0,0,0,0,0,0,0,0,0,0,0,0,0,0,0,0,0,0,0,0,0,0,0,0,0.3896,0.3895,0,0.377,0.3769,0.3767,0.3625,0.3623,0.3621,0.3619,0.349,0.3488,0.3487,0,0,0,0,0,0,0,0,0,0,0,0,0,0.4015,0.4014,0.3896,0.3895,0.3893,0.377,0.3769,0.3767,0.3625,0.3623,0.362,0.3618,0.349,0.3488,0.3487,0,0,0,0,0,0,0,0,0,0,0,0,0,0.3934,0.4013,0.3897,0.3808,0.3798,0.3771,0.3769,0.3767,0.3626,0.3623,0.3619,0.3616,0.3491,0.3489,0.3486,0.3536,0,0,0.348,0.3479,0,0,0,0,0,0,0,0,0.3939,0.393,0.3822,0.3814,0.3803,0.371,0.3763,0.3689,0.3627,0.3691,0.3619,0.3615,0.3566,0.3557,0.354,0.353,0.3525,0.3479,0.3478,0.3477,0.3477,0,0,0,0,0,0,0,0.3945,0.3934,0.3846,0.3821,0.3809,0.3774,0.3759,0.3749,0.3648,0.3685,0.3675,0.3662,0.356,0.3543,0.3536,0.3523,0.3479,0.3478,0.3476,0.3475,0.3549,0.3552,0,0,0,0,0,0,0.3964,0.394,0.385,0.3842,0.3865,0.3775,0.3758,0.3743,0.3647,0.363,0.3665,0.3656,0.3548,0.3539,0.3531,0.3584,0.3477,0.3475,0.3474,0.3546,0.3549,0.3553,0,0,0,0,0,0,0.3967,0.3957,0.3855,0.3888,0.3873,0.3776,0.3761,0.3742,0.3725,0.3632,0.3613,0.3666,0.3545,0.3534,0.3536,0.3578,0.3474,0.3472,0.3542,0.3547,0.3551,0.369,0,0,0,0,0,0,0.3971,0.3959,0.3976,0.389,0.3872,0.3863,0.3763,0.3742,0.3722,0.3709,0.3628,0.3611,0.3542,0.354,0.3534,0.3573,0.347,0.3537,0.3544,0.355,0.3682,0.3699,0.3715,0,0,0,0,0,0.3976,0.402,0.3978,0.3968,0.3891,0.3865,0.3855,0.3774,0.3726,0.3743,0.3683,0.3614,0.3574,0.3542,0.3534,0.3572,0.3535,0.3542,0.3549,0.3674,0.3696,0.3714,0,0,0,0,0,0,0.4113,0.4007,0.3959,0.3977,0.3932,0.3841,0.386,0.3799,0.3766,0.3756,0.3657,0.364,0.3654,0.3613,0.3579,0.3616,0.3544,0.3551,0.3642,0.3662,0.3678,0.3688,0.3469,0,0,0,0,0,0.4146,0.4134,0.4041,0.4066,0.4046,0.3958,0.3943,0.3885,0.3834,0.3814,0.3754,0.3707,0.3684,0.3671,0.3644,0.3675,0.3656,0.3698,0.3714,0.3728,0.3735,0.3749,0.3767,0.3577,0.3577,0.3577,0,0,0.4213,0.4153,0.4151,0.4092,0.405,0.404,0.3942,0.3935,0.3927,0.3812,0.3811,0.3766,0.3707,0.3725,0.3729,0.3691,0.3783,0.3738,0.375,0.3748,0.3759,0.3777,0.3793,0.3582,0.3581,0.358,0,0,0.433,0.4284,0.43,0.426,0.4198,0.4139,0.4143,0.4063,0.4029,0.4026,0.394,0.3929,0.3891,0.3853,0.3829,0.3935,0.387,0.3929,0.4015,0.4031,0.4046,0.4059,0.4097,0.4112,0.3936,0.3936,0.3936,0,0.4421,0.4402,0.4316,0.4315,0.4292,0.4189,0.4205,0.417,0.4103,0.409,0.4048,0.3999,0.3952,0.396,0.3986,0.397,0.3972,0.3937,0.4051,0.4063,0.4073,0.4109,0.4124,0.3944,0.3943,0.3942,0.3941,0,0.4518,0.4507,0.4527,0.4466,0.4445,0.4453,0.4368,0.4358,0.4302,0.4249,0.4248,0.4189,0.4149,0.4146,0.4091,0.4147,0.4125,0.4069,0.3995,0.41,0.4132,0.4145,0.3955,0.3952,0.395,0.3948,0,0,0.4717,0.4609,0.4618,0.4589,0.4514,0.4504,0.4508,0.4469,0.4463,0.4421,0.4422,0.4393,0.4341,0.4314,0.4254,0.4268,0.4357,0.4209,0.4206,0.4239,0.4416,0.446,0.4477,0.4314,0.4316,0.4318,0.4421,0,0.4821,0.4821,0.4744,0.4766,0.4755,0.4658,0.4662,0.4617,0.4567,0.4551,0.4496,0.4478,0.4409,0.4393,0.4402,0.4344,0.4391,0.4336,0.4315,0.4315,0.4333,0.4493,0.4539,0.4639,0.4433,0.4435,0.4436,0,0.4941,0.4907,0.4929,0.4854,0.4847,0.4851,0.4811,0.4797,0.4744,0.4707,0.4679,0.4611,0.461,0.4541,0.4539,0.4504,0.4491,0.4461,0.4463,0.4458,0.4383,0.4493,0.4669,0.4684,0.4455,0.4454,0.4452,0,0.5086,0.5045,0.5052,0.5031,0.4944,0.495,0.4915,0.4859,0.4841,0.4806,0.4794,0.476,0.4741,0.4717,0.4642,0.4598,0.4649,0.4573,0.4619,0.4622,0.4634,0.4634,0.4811,0.4626,0.4626,0.4625,0.4625,0,0.521,0.5227,0.5116,0.5121,0.5138,0.505,0.507,0.5024,0.4976,0.4971,0.4885,0.4882,0.4784,0.477,0.4712,0.472,0.4712,0.4682,0.4667,0.469,0.4694,0.4681,0.4672,0.4629,0.4628,0.4628,0.4627,0,0.5374,0.53,0.5302,0.5221,0.5201,0.5217,0.5147,0.5149,0.5095,0.509,0.5084,0.4999,0.4979,0.4902,0.4863,0.4823,0.4851,0.482,0.4869,0.4859,0.491,0.4906,0.5083,0.5103,0.4906,0.4908,0.491,0,0.5458,0.5469,0.5389,0.538,0.5348,0.5334,0.5317,0.5231,0.5217,0.5159,0.5168,0.5141,0.5115,0.5087,0.5022,0.4992,0.496,0.5024,0.4955,0.4979,0.4962,0.4963,0.4964,0.504,0.5042,0.5044,0.5046,0,0.5616,0.5579,0.5557,0.5523,0.5505,0.5474,0.5437,0.5435,0.534,0.5328,0.5307,0.5287,0.5247,0.5222,0.5182,0.5145,0.5081,0.5069,0.5078,0.5102,0.513,0.5117,0.4911,0.5065,0.5063,0.5061,0.506,0.506,0.5742,0.5748,0.5694,0.5673,0.5637,0.5606,0.5604,0.555,0.5531,0.5493,0.5444,0.5429,0.5378,0.5317,0.5286,0.5273,0.5237,0.525,0.5253,0.5258,0.527,0.5133,0.5265,0.5265,0.5264,0.5264,0.5263,0,0.5896,0.5857,0.5838,0.5791,0.5775,0.5716,0.5674,0.5664,0.5653,0.561,0.5587,0.5564,0.5539,0.5473,0.5442,0.5445,0.5415,0.544,0.5439,0.5432,0.5304,0.5299,0.5465,0.5465,0.5465,0.5465,0.5465,0.5465,0.5974,0.5982,0.594,0.593,0.589,0.5875,0.5856,0.5827,0.5793,0.5771,0.5751,0.5708,0.5657,0.5622,0.5598,0.5579,0.5572,0.5607,0.5579,0.546,0.5441,0.5422,0.5418,0.5606,0.5606,0.5708,0.5709,0.571]},{"header":{"parameterUnit":"m.s-1","parameterCategory":1,"la1":30.2991,"la2":30.254,"lo1":-89.0895,"lo2":-89.0444,"dy":0.0017,"dx":0.0017,"nx":28,"ny":28,"refTime":"2023-08-01T03:00:00:Z","depth":0,"parameterNumber":3,"parameterNumberName":"V-component_of_WINDS"},"data":[0,0,0,0,0,0,0,0,0,0,0,0,0,0,0,0,0,0,0,0,0,0,0,0,0,0,0,0,0,0,0,0,0,0,0,0,0,0,0,0,0,0,0,0,0,0,0,0,0,0,0,0,0,0,0,0,0,0,-1.5991,-1.5991,0,-1.5956,-1.5955,-1.5955,-1.5899,-1.5898,-1.5897,-1.5896,-1.5858,-1.5858,-1.5858,0,0,0,0,0,0,0,0,0,0,0,0,0,-1.6011,-1.6011,-1.5991,-1.5991,-1.599,-1.5956,-1.5955,-1.5955,-1.59,-1.5898,-1.5897,-1.5896,-1.5858,-1.5858,-1.5858,0,0,0,0,0,0,0,0,0,0,0,0,0,-1.5992,-1.6011,-1.5991,-1.5959,-1.5955,-1.5956,-1.5955,-1.5955,-1.59,-1.5898,-1.5897,-1.5895,-1.5858,-1.5858,-1.5857,-1.5886,0,0,-1.5857,-1.5857,0,0,0,0,0,0,0,0,-1.5993,-1.5991,-1.5964,-1.5961,-1.5957,-1.5931,-1.5948,-1.5932,-1.59,-1.5921,-1.5896,-1.5895,-1.5883,-1.5881,-1.5877,-1.5885,-1.5883,-1.5857,-1.5857,-1.5857,-1.5857,0,0,0,0,0,0,0,-1.5994,-1.5992,-1.5977,-1.5964,-1.596,-1.5946,-1.5941,-1.5945,-1.5911,-1.5919,-1.5915,-1.5911,-1.5881,-1.5878,-1.5876,-1.5882,-1.5857,-1.5857,-1.5857,-1.5857,-1.5915,-1.5917,0,0,0,0,0,0,-1.6001,-1.5994,-1.5978,-1.5976,-1.5972,-1.5947,-1.5942,-1.5941,-1.591,-1.5904,-1.5913,-1.5909,-1.5878,-1.5876,-1.5874,-1.5908,-1.5857,-1.5857,-1.5857,-1.5914,-1.5916,-1.5917,0,0,0,0,0,0,-1.6001,-1.6,-1.598,-1.5984,-1.598,-1.5948,-1.5947,-1.5941,-1.5937,-1.5906,-1.5899,-1.5916,-1.5877,-1.5875,-1.5885,-1.5906,-1.5857,-1.5856,-1.5912,-1.5914,-1.5916,-1.5976,0,0,0,0,0,0,-1.6002,-1.6,-1.6011,-1.5985,-1.598,-1.5991,-1.5948,-1.5941,-1.5937,-1.5932,-1.5907,-1.5901,-1.5876,-1.5885,-1.5885,-1.5905,-1.5856,-1.591,-1.5913,-1.5916,-1.5972,-1.598,-1.5987,0,0,0,0,0,-1.6003,-1.6027,-1.6011,-1.601,-1.5993,-1.5992,-1.599,-1.5961,-1.5939,-1.595,-1.593,-1.5902,-1.5904,-1.5887,-1.5886,-1.5906,-1.5908,-1.5912,-1.5915,-1.5968,-1.5978,-1.5987,0,0,0,0,0,0,-1.6055,-1.6023,-1.6005,-1.6022,-1.6011,-1.5983,-1.5995,-1.5972,-1.5965,-1.596,-1.5924,-1.5919,-1.5934,-1.5921,-1.5902,-1.5934,-1.5902,-1.5906,-1.5942,-1.5952,-1.5959,-1.5962,-1.5856,0,0,0,0,0,-1.6069,-1.6072,-1.6043,-1.6061,-1.6056,-1.6027,-1.6025,-1.6005,-1.5991,-1.5985,-1.5966,-1.5953,-1.5952,-1.5951,-1.5947,-1.597,-1.5964,-1.5984,-1.5991,-1.5998,-1.6001,-1.6015,-1.6024,-1.593,-1.593,-1.5929,0,0,-1.6097,-1.608,-1.6083,-1.6071,-1.606,-1.6064,-1.6023,-1.6028,-1.6031,-1.5986,-1.5995,-1.5981,-1.5964,-1.5982,-1.5989,-1.5971,-1.6026,-1.6002,-1.6008,-1.6008,-1.602,-1.6029,-1.6037,-1.5932,-1.5932,-1.5931,0,0,-1.615,-1.6137,-1.6151,-1.6141,-1.6126,-1.6106,-1.611,-1.6087,-1.6076,-1.6086,-1.6053,-1.6056,-1.6052,-1.6043,-1.6038,-1.6092,-1.6066,-1.6091,-1.6131,-1.6145,-1.6152,-1.6159,-1.618,-1.6187,-1.6095,-1.6095,-1.6095,0,-1.6186,-1.6191,-1.6161,-1.617,-1.6166,-1.6128,-1.6143,-1.6135,-1.6118,-1.6117,-1.6098,-1.6096,-1.6081,-1.6098,-1.6111,-1.6108,-1.6112,-1.6094,-1.6154,-1.616,-1.6165,-1.6185,-1.6193,-1.6098,-1.6098,-1.6098,-1.6097,0,-1.6237,-1.6242,-1.6255,-1.6243,-1.6241,-1.6252,-1.6225,-1.6227,-1.6207,-1.619,-1.6202,-1.6184,-1.6178,-1.618,-1.6159,-1.6194,-1.6184,-1.616,-1.6127,-1.6178,-1.6196,-1.6203,-1.6103,-1.6102,-1.6101,-1.61,0,0,-1.632,-1.6293,-1.6299,-1.6294,-1.6275,-1.6278,-1.6289,-1.6284,-1.6287,-1.6278,-1.6287,-1.6287,-1.6266,-1.626,-1.6239,-1.6251,-1.6298,-1.6226,-1.6225,-1.6241,-1.6337,-1.6356,-1.6366,-1.6281,-1.6282,-1.6283,-1.6339,0,-1.637,-1.6387,-1.6363,-1.6386,-1.6391,-1.6356,-1.6366,-1.6356,-1.6342,-1.6344,-1.6327,-1.6329,-1.63,-1.6297,-1.6307,-1.629,-1.6317,-1.6285,-1.629,-1.629,-1.6296,-1.6374,-1.6394,-1.6447,-1.6346,-1.6347,-1.6348,0,-1.6429,-1.6426,-1.645,-1.6434,-1.6434,-1.6444,-1.6439,-1.6441,-1.643,-1.6419,-1.6415,-1.6391,-1.6401,-1.637,-1.6384,-1.6364,-1.6364,-1.6357,-1.6358,-1.6358,-1.6323,-1.6377,-1.6463,-1.6472,-1.6358,-1.6358,-1.6357,0,-1.649,-1.649,-1.6506,-1.6503,-1.6483,-1.6491,-1.6483,-1.647,-1.647,-1.6466,-1.6466,-1.6462,-1.6461,-1.6459,-1.6435,-1.6414,-1.6454,-1.642,-1.6446,-1.6447,-1.6456,-1.6455,-1.6544,-1.6455,-1.6455,-1.6455,-1.6454,0,-1.6548,-1.6565,-1.6533,-1.6543,-1.6561,-1.6533,-1.6553,-1.6541,-1.6531,-1.6538,-1.6508,-1.6515,-1.6483,-1.6487,-1.6469,-1.6485,-1.6484,-1.6476,-1.6471,-1.6479,-1.6481,-1.6479,-1.6475,-1.6457,-1.6456,-1.6456,-1.6456,0,-1.6618,-1.6597,-1.6612,-1.6593,-1.6589,-1.6604,-1.6588,-1.6596,-1.6581,-1.6591,-1.6592,-1.6568,-1.6572,-1.6549,-1.6547,-1.6535,-1.6561,-1.6549,-1.6566,-1.6562,-1.659,-1.6589,-1.6682,-1.6694,-1.6596,-1.6597,-1.6598,0,-1.6657,-1.6669,-1.6653,-1.6657,-1.6651,-1.6656,-1.6657,-1.6631,-1.6633,-1.6623,-1.6634,-1.6636,-1.6636,-1.6644,-1.6626,-1.6626,-1.6615,-1.6648,-1.6614,-1.6624,-1.6617,-1.6617,-1.6619,-1.6655,-1.6656,-1.6657,-1.6658,0,-1.6729,-1.6719,-1.6721,-1.6721,-1.6723,-1.6722,-1.6718,-1.6722,-1.6694,-1.6698,-1.6703,-1.6704,-1.6705,-1.6708,-1.6705,-1.6696,-1.6673,-1.6669,-1.6675,-1.6684,-1.6693,-1.669,-1.6586,-1.6666,-1.6665,-1.6665,-1.6664,-1.6664,-1.6785,-1.6796,-1.6787,-1.6792,-1.6787,-1.6785,-1.6793,-1.678,-1.6784,-1.6784,-1.6768,-1.6777,-1.6768,-1.6762,-1.6757,-1.6764,-1.6748,-1.6757,-1.6759,-1.6762,-1.6768,-1.6692,-1.6763,-1.6763,-1.6762,-1.6762,-1.6762,0,-1.6857,-1.685,-1.6855,-1.6852,-1.6857,-1.6836,-1.6831,-1.6836,-1.6845,-1.6839,-1.6841,-1.6848,-1.6852,-1.6836,-1.6838,-1.6847,-1.6836,-1.6848,-1.6847,-1.6846,-1.6781,-1.6776,-1.6857,-1.6857,-1.6857,-1.6857,-1.6857,-1.6857,-1.6895,-1.6913,-1.6903,-1.6919,-1.6912,-1.6921,-1.6921,-1.692,-1.6916,-1.6925,-1.6929,-1.6919,-1.691,-1.6912,-1.6915,-1.691,-1.6913,-1.6929,-1.6921,-1.686,-1.6851,-1.6842,-1.6837,-1.6929,-1.693,-1.6986,-1.6987,-1.6987]}]]